Theta_e
308 310 311 310 309 308 308 307 307 306 305 305 305 307 308 308 309 308 309 309 309 309 311 312 311 311 312 311 311 312 311 311 310 311 311 310 309 308 307 305 305 304 303 303 302 300 300 300 299 299 299 298 298 298 299 298 298 297 297 296 295 293 294 296 297 296 294 293 293 293 293 294 293 294 293 294 295 295 295 294 294 294 294 294 294
309 308 307 308 308 309 308 306 305 304 305 304 304 305 307 308 308 309 308 308 307 308 309 310 311 311 311 311 311 311 310 308 308 309 309 309 307 307 306 305 304 303 302 302 301 301 300 299 298 297 297 298 298 299 299 298 298 297 297 295 296 294 293 295 296 295 293 292 291 290 291 291 292 292 292 293 294 294 294 294 294 294 293 293 293
306 305 307 306 307 308 306 306 305 304 303 303 304 304 305 306 307 308 308 307 307 307 308 308 310 311 311 310 310 309 310 309 309 308 307 306 306 306 305 304 303 303 302 301 301 301 300 298 297 297 297 298 297 298 298 297 297 296 296 294 293 295 295 295 296 297 293 296 295 292 290 289 290 290 292 292 292 293 294 294 294 294 293 293 293
304 304 304 304 305 304 304 303 302 304 303 303 302 302 303 304 305 307 307 307 307 307 306 308 309 310 310 308 308 308 306 306 306 305 305 304 304 304 304 304 303 302 302 301 301 301 300 298 297 297 297 298 297 297 297 297 296 296 295 295 294 292 294 292 295 296 298 296 291 292 293 292 290 289 289 290 292 292 292 293 293 292 292 293 293
303 303 303 303 303 302 303 302 303 302 302 301 300 300 301 302 304 306 306 306 306 306 305 307 306 306 306 305 305 305 303 303 303 303 303 303 303 302 302 303 303 302 302 301 300 300 300 299 298 297 297 297 297 297 297 296 296 296 296 295 294 292 292 292 293 296 296 299 296 292 289 289 292 294 291 290 291 290 291 292 292 292 292 292 292
303 302 302 303 302 302 301 300 299 299 299 298 299 300 300 301 302 304 305 305 305 306 305 305 304 304 303 302 300 300 300 300 300 301 301 301 301 302 302 302 302 302 302 301 300 299 300 299 299 297 297 296 297 297 297 297 297 296 296 295 295 295 294 293 291 293 295 296 295 297 299 295 295 293 292 289 290 292 292 291 292 291 293 292 292
303 302 302 300 300 300 299 298 298 297 296 298 299 299 300 300 301 302 303 304 305 305 305 304 304 303 303 302 302 301 300 301 302 302 302 301 302 301 301 301 301 301 301 301 300 299 300 299 299 298 297 297 296 296 296 296 296 296 296 295 295 296 296 293 293 291 293 292 294 295 296 291 298 293 291 294 288 289 291 291 290 291 291 291 292
300 300 300 300 299 298 297 297 297 296 296 296 297 298 298 299 299 301 302 303 304 304 304 304 303 303 302 302 302 302 301 302 301 301 302 301 300 300 300 300 300 300 300 300 300 299 299 299 299 298 297 297 296 295 296 297 297 297 296 296 296 295 297 294 294 293 290 290 293 292 291 292 294 295 301 296 294 291 288 290 291 291 290 290 291
298 298 298 298 297 297 297 296 296 296 296 295 296 296 298 299 299 300 300 301 302 302 303 303 303 303 303 302 301 302 302 303 303 301 300 300 299 299 299 299 299 299 300 300 299 299 298 299 299 298 297 296 295 296 296 297 296 296 295 294 294 294 295 296 296 295 293 293 291 291 293 292 293 295 294 295 294 293 291 289 289 290 290 290 290
299 298 297 296 296 295 295 295 294 294 295 296 295 296 296 297 297 298 298 299 301 301 301 302 302 302 302 302 301 302 302 302 302 301 300 300 298 299 298 298 298 298 298 299 299 299 299 298 298 298 297 297 295 295 296 296 296 296 295 294 295 294 295 295 296 296 295 296 294 294 291 291 291 291 291 293 293 295 293 292 292 288 286 288 290
297 296 295 295 295 294 294 293 293 294 294 294 294 294 295 295 295 296 296 297 298 299 300 301 302 301 301 302 301 301 302 301 300 299 299 299 298 298 298 297 297 297 297 298 298 298 298 298 298 297 297 296 295 295 295 295 295 295 295 295 294 294 294 294 295 297 296 296 295 294 292 292 291 291 291 292 292 291 290 292 293 292 291 290 289
295 294 293 293 293 293 293 292 292 292 293 293 293 294 293 294 294 294 294 294 296 297 298 299 300 301 301 301 301 301 301 301 300 299 299 298 298 298 298 297 297 297 297 297 297 298 298 297 297 297 296 296 295 295 295 295 295 295 295 294 294 294 294 294 294 294 295 295 296 295 294 295 294 294 295 294 293 293 293 292 292 291 289 291 290
292 292 292 292 291 291 291 291 291 291 291 292 292 293 293 293 293 293 292 293 294 295 295 296 297 298 299 299 299 300 300 300 300 299 300 299 298 298 297 296 296 296 296 296 296 297 297 296 296 296 296 296 296 295 295 295 294 294 294 294 294 293 293 293 292 293 294 293 294 295 295 295 295 297 298 296 295 296 294 292 293 291 289 288 288
291 291 291 291 290 291 291 291 291 291 291 291 291 292 292 292 292 292 292 292 293 293 294 294 295 296 296 297 297 298 298 299 299 299 299 299 299 298 298 297 297 296 296 296 297 297 296 297 297 296 296 296 296 295 295 295 295 293 293 293 293 294 293 293 293 294 294 295 295 293 293 294 295 297 296 296 295 294 292 292 291 288 290 290 287
291 290 290 290 290 290 290 290 291 291 291 291 291 291 292 292 292 291 291 292 292 292 293 293 294 294 295 296 296 296 297 297 298 299 299 298 298 298 298 298 298 298 297 297 297 297 296 296 296 296 296 296 296 295 295 295 294 294 293 293 293 293 293 293 292 293 293 293 294 293 293 293 294 295 294 295 296 294 294 293 291 287 285 287 286
290 289 289 289 290 290 290 290 290 290 290 291 290 291 291 291 291 291 291 292 292 292 292 292 292 293 294 294 295 295 295 295 296 297 297 298 298 297 297 298 298 298 298 298 297 297 296 296 296 296 296 296 295 295 295 294 294 293 292 292 292 293 292 292 292 292 293 293 293 293 293 292 293 294 293 294 295 295 295 295 293 291 288 285 285
289 289 289 289 289 289 289 289 289 290 290 290 290 290 290 290 290 291 291 292 292 292 292 292 292 292 293 293 293 294 294 294 295 295 296 297 297 297 297 297 298 298 298 298 297 297 296 296 295 295 295 295 295 294 294 294 293 292 291 291 291 292 291 292 291 291 291 292 292 292 291 292 292 293 292 293 294 294 295 295 294 292 292 289 286
288 288 289 289 289 289 289 289 289 289 289 289 290 290 290 290 290 290 290 290 291 291 291 291 291 291 292 292 292 293 293 293 294 294 295 295 295 295 296 296 296 297 297 298 297 296 296 294 295 294 294 294 294 294 293 293 293 292 291 291 291 292 291 291 291 291 291 291 291 291 291 291 292 291 291 291 292 292 292 293 292 293 293 290 290
287 287 288 288 288 288 288 288 289 289 289 289 290 290 290 290 290 290 290 290 290 291 291 291 291 292 292 291 291 292 292 293 293 294 294 294 294 295 295 295 295 296 295 295 295 295 295 294 294 294 294 293 293 293 293 292 292 291 291 290 291 291 290 290 290 290 290 290 290 290 290 290 291 291 290 290 291 291 291 291 291 292 292 292 290
286 286 287 287 287 288 288 288 288 288 288 289 289 289 289 289 289 290 290 290 290 290 290 290 291 291 291 291 291 291 291 292 292 292 292 292 293 293 294 294 294 295 295 295 295 294 294 294 293 293 293 293 293 292 292 292 291 291 290 290 290 290 289 289 289 289 289 289 289 288 289 289 290 290 289 289 289 290 290 290 290 290 290 290 290
285 286 286 286 286 287 287 288 288 288 289 289 289 288 289 289 289 289 289 289 289 289 290 290 290 290 289 289 290 290 290 291 291 291 291 291 292 292 293 293 294 293 294 294 294 294 294 294 293 293 292 292 292 291 291 291 291 290 290 289 289 289 288 288 288 288 288 288 288 287 288 288 290 289 289 289 288 289 289 289 289 289 289 288 288
285 285 285 286 286 286 287 288 288 288 288 287 288 288 288 288 288 289 289 289 289 288 289 289 290 289 288 288 288 289 289 290 289 290 289 290 290 291 292 292 292 292 293 293 293 293 293 293 293 292 292 292 292 291 291 290 290 289 289 289 288 288 287 287 287 287 287 287 287 287 287 287 288 287 288 287 288 287 287 287 287 288 287 287 288
285 285 285 285 286 286 286 286 287 287 287 287 287 287 287 287 287 288 288 288 289 289 289 289 288 288 288 288 287 287 288 288 288 288 288 288 289 290 291 290 291 291 292 292 292 292 292 292 292 292 292 291 291 291 290 289 289 289 288 288 288 287 287 286 286 286 286 286 286 286 286 286 287 286 286 287 287 286 286 286 286 287 286 286 286
285 286 285 286 286 286 286 286 286 286 286 286 287 287 287 287 287 287 287 287 288 289 289 288 288 288 288 288 288 288 287 287 286 287 287 288 289 289 290 290 290 290 290 291 291 291 291 291 291 291 290 290 290 290 290 289 289 288 288 287 287 287 286 286 286 286 286 286 285 285 285 285 285 284 285 285 285 285 285 284 285 285 285 285 286
284 285 285 285 285 285 285 286 286 286 287 287 286 286 286 286 286 286 286 287 288 288 288 288 288 287 288 288 288 288 287 287 287 287 287 288 288 289 289 289 289 289 290 290 290 290 290 290 290 289 289 289 289 289 289 289 289 288 288 287 287 287 286 286 286 286 286 285 285 284 285 285 284 283 284 284 284 283 283 283 283 284 284 285 284
284 285 285 285 285 286 286 286 286 286 286 286 286 286 286 286 285 286 286 287 287 288 288 287 287 287 287 287 287 287 287 287 287 287 287 287 287 288 288 289 289 289 289 289 289 289 289 288 288 289 289 289 289 288 288 288 288 288 287 287 287 287 286 286 286 284 284 284 284 284 284 284 283 283 283 283 283 282 282 282 282 282 283 283 283
284 284 284 285 285 285 285 285 286 286 286 286 286 286 286 285 285 285 286 286 287 287 287 286 287 287 287 286 286 286 286 286 286 286 287 287 287 287 287 288 288 288 288 288 289 289 289 288 287 288 288 288 288 288 288 287 287 287 286 285 286 286 286 286 286 285 285 284 284 283 283 283 283 283 283 283 282 281 282 282 282 282 282 282 282
284 284 284 284 284 285 285 285 285 286 286 286 286 286 285 285 285 285 285 286 287 286 286 286 286 286 286 286 287 287 287 287 287 287 287 287 287 287 287 288 288 288 287 288 288 288 288 288 287 287 287 288 288 288 288 288 287 287 286 286 285 285 285 285 285 285 285 284 284 283 283 283 283 283 283 282 282 281 282 282 283 282 282 281 282
284 284 284 285 284 285 285 285 285 286 286 286 286 286 285 285 285 285 284 285 286 286 285 285 285 285 285 286 286 287 287 287 287 286 286 286 287 287 286 287 287 287 288 288 288 288 287 287 287 287 287 287 287 287 288 287 287 287 286 286 285 285 285 285 284 284 284 284 284 284 283 283 283 283 284 284 284 284 283 282 282 282 282 281 282
283 284 284 285 285 285 285 286 285 285 285 285 286 285 285 285 285 284 284 285 285 285 285 285 284 285 285 286 286 286 286 286 286 286 286 286 286 286 286 286 286 287 287 287 287 287 287 287 287 287 287 287 286 287 287 287 288 287 287 286 286 285 285 285 284 283 283 283 283 283 283 283 283 283 284 284 285 285 285 284 283 282 282 282 281
284 284 285 285 285 285 285 285 285 285 285 285 285 285 285 284 285 284 284 284 285 284 284 284 284 284 285 285 285 285 285 285 285 285 285 286 286 286 285 285 286 286 286 286 286 286 286 286 286 286 286 287 287 287 287 289 289 289 287 286 285 285 285 285 284 283 283 283 283 283 283 283 283 283 283 284 286 286 285 285 284 284 284 283 281
283 284 284 285 285 285 285 285 285 285 285 285 285 285 284 284 284 283 283 284 284 284 283 283 283 284 284 284 284 284 284 284 284 284 284 285 285 285 285 285 285 285 285 285 285 286 286 286 285 285 285 286 286 287 288 288 289 289 289 286 286 285 285 285 284 283 283 283 283 283 283 283 283 283 283 283 284 285 285 285 285 284 284 284 285
283 284 284 285 285 285 285 285 286 286 286 286 286 285 284 284 284 283 283 282 283 283 283 283 283 283 283 283 283 283 283 282 282 283 284 285 285 285 285 285 284 285 285 284 285 285 285 286 285 285 284 285 285 287 288 288 289 289 289 288 286 285 285 285 284 284 283 283 283 283 282 282 283 283 283 282 282 283 284 285 284 284 283 284 284
285 284 284 285 285 286 286 286 286 286 286 286 286 285 285 285 283 283 282 282 282 282 282 282 282 282 283 282 282 282 281 281 281 281 283 284 285 284 284 284 285 285 284 284 284 284 284 284 285 285 285 285 285 286 287 287 288 288 289 288 286 285 285 285 285 284 283 283 283 282 282 282 282 282 283 282 282 282 282 283 282 282 281 281 283
285 284 285 285 285 286 286 286 286 286 286 286 286 286 285 284 283 282 282 281 281 281 281 281 281 281 282 281 281 280 280 279 279 280 281 283 284 284 284 284 284 283 283 283 283 283 283 283 284 284 284 284 284 286 286 287 287 288 288 288 286 286 285 285 285 284 283 283 283 283 282 282 282 282 282 282 281 281 281 281 280 280 280 280 281
285 285 285 285 286 285 285 286 287 287 286 286 285 285 284 283 283 281 281 280 280 280 280 280 280 280 280 280 280 279 278 277 277 278 279 281 283 283 282 282 282 282 283 283 283 284 283 283 284 284 283 283 284 285 286 286 286 287 287 286 286 286 285 285 285 285 283 283 283 282 281 281 281 281 282 283 282 282 280 280 279 279 279 279 280
286 286 285 286 287 286 286 287 287 286 286 285 285 284 283 282 281 281 280 279 279 278 279 279 279 279 279 280 279 278 277 276 276 276 277 280 281 281 280 280 280 281 281 281 282 282 283 283 282 283 282 282 283 285 285 285 286 286 286 285 286 286 285 285 285 285 284 283 282 281 281 281 280 280 282 284 284 282 280 279 279 278 278 278 278
287 287 287 287 287 287 287 287 286 285 285 285 284 283 282 281 280 280 279 278 278 278 278 278 278 278 279 279 278 276 275 275 275 275 276 279 280 279 278 278 278 278 279 280 281 281 281 282 282 282 282 282 282 283 285 285 285 286 285 285 285 285 285 285 285 285 284 283 282 282 282 281 280 280 282 284 284 282 279 279 278 277 276 276 277
287 287 286 286 287 286 286 285 285 284 284 284 282 281 280 279 279 279 278 277 277 278 278 277 277 278 278 278 277 276 275 274 274 274 276 277 277 276 276 276 276 276 277 278 279 280 281 281 282 282 282 282 282 283 284 284 285 285 285 285 284 284 284 284 285 284 284 283 282 282 282 281 280 280 283 284 284 283 279 278 278 277 276 275 277
287 287 287 286 286 284 283 283 283 283 284 282 281 279 278 278 278 278 277 276 277 277 278 278 277 277 277 276 276 274 274 273 273 274 275 275 275 274 274 274 274 274 275 276 277 279 279 280 281 281 281 281 281 282 282 283 284 285 285 284 284 284 283 283 284 283 282 281 281 280 281 283 283 282 283 284 284 284 280 279 279 277 276 275 278
286 285 283 282 282 282 282 282 282 282 281 280 278 277 277 277 277 276 276 276 277 277 277 276 276 276 275 274 274 273 272 273 273 273 274 273 272 272 272 271 271 272 273 274 275 276 277 278 279 280 281 281 281 281 282 283 283 284 285 284 283 283 284 284 284 283 283 281 280 279 279 282 283 283 283 283 284 284 283 279 279 277 278 278 280
285 282 281 280 280 280 280 279 280 280 279 278 277 275 275 275 275 275 275 277 276 276 275 275 274 274 273 272 272 272 272 272 272 272 271 270 271 271 270 270 270 271 271 272 273 274 276 277 279 280 280 280 281 281 281 282 283 283 284 284 283 283 284 284 283 283 283 281 281 280 278 280 282 283 283 283 284 284 284 280 279 281 281 281 279
281 279 279 277 277 277 277 277 277 277 277 276 275 273 274 274 273 274 276 275 275 274 273 273 272 271 271 271 271 271 270 270 270 270 269 268 269 268 268 269 269 269 270 271 272 274 275 276 278 279 280 280 281 281 282 281 282 283 283 284 284 284 285 284 283 282 282 281 281 279 278 280 281 282 283 283 283 284 284 281 282 282 281 281 280
278 277 277 275 274 275 275 275 275 275 275 275 274 272 272 271 272 274 274 274 273 272 272 270 270 270 270 270 269 269 269 269 269 268 268 267 267 267 267 268 268 269 269 270 272 274 275 276 276 277 279 280 281 281 281 281 281 282 283 283 284 285 285 284 284 283 283 282 280 279 278 280 281 282 282 283 283 283 282 284 283 282 282 281 277
275 275 275 274 273 272 272 272 273 273 273 272 272 271 270 269 271 272 271 271 270 270 269 268 268 268 268 268 268 268 268 267 267 267 266 266 266 266 266 267 267 268 269 269 271 273 273 275 276 276 278 279 280 281 280 280 281 281 282 283 283 284 285 285 283 284 283 282 281 280 280 280 281 281 282 282 282 283 284 284 283 282 281 279 276
274 273 272 271 271 270 270 269 270 270 270 270 270 270 268 269 270 270 270 269 268 267 267 266 267 267 267 267 266 266 266 266 266 266 266 266 265 265 265 266 267 267 268 269 270 271 273 274 275 276 277 278 279 280 279 279 279 280 280 281 282 283 283 284 284 284 284 283 282 281 280 280 280 280 280 280 280 280 282 283 283 282 279 278 276
271 271 270 269 268 267 267 267 266 268 268 268 268 268 268 268 267 267 267 266 265 264 264 264 264 265 265 265 264 264 265 265 265 265 265 265 265 265 265 265 266 266 267 268 269 270 272 273 274 275 276 277 278 279 279 279 278 278 278 279 279 280 282 282 282 282 283 282 282 280 279 280 279 280 281 281 281 281 281 281 281 280 279 278 275
269 268 268 267 266 265 265 265 265 266 266 265 265 265 265 264 264 264 263 263 262 262 262 262 262 263 263 263 263 263 263 263 263 263 263 264 264 265 265 265 265 265 266 266 268 269 270 271 273 274 275 276 277 278 278 279 278 278 277 278 278 278 279 279 280 281 282 282 280 280 280 279 278 278 279 279 279 280 280 280 280 278 278 275 275
266 266 266 265 264 264 263 263 262 263 263 262 262 262 261 261 261 261 261 260 260 260 260 260 260 261 261 262 262 262 262 262 262 262 263 263 263 263 264 264 265 266 266 266 266 267 269 270 271 272 273 274 275 276 277 281 279 279 277 277 277 277 278 279 280 282 281 279 278 277 277 277 276 276 276 277 277 278 278 279 277 278 275 273 274
265 265 264 263 262 261 260 260 260 261 260 260 259 259 260 260 260 259 259 258 258 258 258 258 259 259 260 260 261 261 261 261 261 261 261 261 264 267 266 264 264 267 270 272 272 268 269 270 270 272 273 273 274 276 280 280 281 281 281 280 279 280 280 279 280 282 281 277 276 275 275 275 275 275 275 276 276 277 277 277 276 276 273 273 272
263 262 261 260 259 259 259 258 259 259 259 258 258 258 258 259 259 259 259 258 258 257 258 258 258 258 259 259 259 259 259 260 260 260 260 260 260 262 267 269 270 270 271 272 273 274 275 275 273 272 274 278 279 280 281 281 281 282 282 281 281 281 281 281 281 280 279 276 275 274 274 275 275 275 275 276 276 276 275 274 274 273 272 271 272
Wind_Speed
7 9 8 9 9 8 7 6 6 6 6 7 7 8 10 10 9 11 9 11 10 10 10 11 11 11 10 11 12 10 11 11 10 10 10 10 10 10 10 11 11 12 12 12 12 11 10 9 9 9 9 9 9 10 10 10 9 9 8 7 9 8 6 5 7 7 8 5 4 3 3 2 2 1 3 3 3 3 3 3 3 3 3 3 2
7 6 9 8 9 8 6 6 6 8 6 3 6 7 7 8 9 8 7 10 11 11 9 10 11 11 11 12 11 10 10 11 11 10 11 9 10 11 10 11 11 11 11 12 11 12 11 9 9 10 10 9 9 7 8 8 9 9 8 7 7 9 7 8 8 9 7 7 7 5 3 3 3 2 3 4 4 4 4 4 4 4 3 3 2
4 5 7 10 11 12 11 11 10 8 8 7 5 5 5 6 7 7 7 9 10 11 10 10 10 9 9 7 9 8 7 8 8 8 8 9 9 10 10 11 11 10 11 11 11 11 11 10 10 10 11 10 9 9 9 10 10 11 12 10 9 7 6 7 10 11 7 7 6 6 5 5 4 4 5 5 5 4 4 4 4 4 4 3 3
6 8 11 11 12 13 14 14 13 9 7 7 7 6 4 4 5 7 7 8 8 9 9 8 8 7 7 3 5 6 5 6 6 5 7 8 9 9 9 10 11 11 12 12 10 11 12 11 10 10 12 11 11 11 11 11 10 10 11 10 10 9 7 9 9 9 4 10 7 6 5 5 3 8 8 7 6 5 5 5 5 4 5 4 3
6 11 12 12 14 14 14 14 12 12 10 10 8 7 5 6 5 5 6 8 8 8 9 7 6 6 6 3 3 4 1 4 7 9 8 8 8 9 11 10 12 11 12 13 12 13 12 11 12 11 12 11 11 10 11 12 12 11 12 11 13 12 11 9 10 9 8 5 3 5 2 3 6 4 9 6 7 6 7 6 6 6 6 5 4
8 10 11 12 12 12 15 15 15 13 12 11 9 8 7 6 6 5 5 5 6 8 10 8 7 8 8 8 9 8 9 10 11 11 10 11 11 8 9 11 11 11 11 13 13 12 12 12 11 11 11 11 11 11 10 9 11 12 13 12 13 12 10 9 10 8 7 6 6 4 2 2 3 6 7 4 6 6 6 7 6 7 6 5 4
11 13 14 15 15 15 16 16 15 14 14 12 10 10 9 7 6 4 4 3 3 5 8 8 8 8 10 10 10 10 10 9 8 7 8 9 8 10 9 10 12 11 11 11 12 12 11 12 12 11 11 11 10 10 10 12 11 12 11 12 11 11 10 10 11 11 7 6 5 4 3 2 3 7 6 5 4 5 6 7 7 7 6 6 5
10 12 13 13 13 14 14 15 12 12 13 13 12 12 12 10 8 6 3 3 1 3 6 7 7 8 9 10 9 9 9 7 8 7 7 8 9 10 9 9 10 10 10 10 11 11 11 11 11 11 11 11 10 11 11 10 9 8 10 12 9 11 11 11 11 11 13 10 8 6 4 1 3 4 3 6 4 5 6 6 6 8 7 7 7
12 11 12 11 12 11 9 8 11 16 17 15 14 13 12 10 9 7 5 3 2 3 4 6 7 6 7 8 8 8 7 7 3 6 6 7 9 8 9 9 9 11 11 11 12 12 11 11 11 11 11 11 9 10 10 10 12 13 12 11 11 11 11 11 10 10 11 10 9 6 5 5 3 2 2 2 6 7 5 8 8 6 6 7 7
10 10 9 10 11 10 9 13 19 17 14 14 13 12 12 11 11 10 9 6 5 2 3 5 7 6 6 7 9 8 6 6 5 4 6 5 8 9 9 8 9 10 11 12 12 13 13 12 11 13 12 10 9 11 10 10 11 11 12 13 12 12 10 10 11 9 10 8 10 8 8 6 4 4 5 5 2 3 6 6 8 9 8 8 8
7 7 10 11 10 12 14 19 17 17 15 16 15 14 13 13 13 13 11 8 8 6 4 4 5 6 6 7 8 8 7 7 5 6 5 5 7 8 8 8 8 9 10 10 12 13 13 13 12 13 12 11 11 12 12 12 11 11 11 12 12 14 11 11 9 7 8 8 10 9 10 11 10 9 9 8 8 6 4 4 5 7 6 7 7
8 10 12 13 13 16 17 19 19 18 18 18 15 14 15 14 13 14 13 11 9 7 6 5 5 5 6 6 7 7 8 6 7 8 6 7 7 7 7 7 8 9 9 10 11 12 11 11 11 12 12 13 13 13 12 12 11 11 11 12 12 13 11 10 11 10 10 8 10 9 10 10 10 9 8 9 9 8 8 7 6 4 1 2 5
12 12 12 13 13 15 17 18 17 19 17 18 17 15 14 14 15 15 15 12 9 7 7 6 6 6 6 6 7 6 7 8 8 8 7 6 6 7 7 8 7 8 10 11 11 14 12 12 12 13 12 12 12 12 12 13 12 12 12 13 13 14 14 14 11 13 12 11 10 10 9 10 10 8 7 8 8 6 7 7 4 5 5 5 4
12 11 11 12 13 14 15 14 14 13 15 15 15 15 13 13 15 15 15 12 11 10 8 7 6 5 6 6 6 6 7 7 8 8 7 6 6 8 8 8 8 9 9 11 11 12 11 13 12 12 12 12 12 12 12 12 12 12 12 13 14 13 11 13 13 11 10 10 7 8 9 8 9 6 6 6 7 7 7 9 5 3 1 4 4
9 10 11 13 14 14 13 13 12 12 13 13 12 13 12 13 14 15 15 15 14 12 10 9 7 6 5 4 4 5 7 7 7 7 7 6 6 7 8 8 8 8 9 8 9 10 12 12 12 12 12 12 11 10 9 10 10 10 10 12 11 10 11 12 12 12 10 11 11 10 8 8 8 6 6 7 7 8 8 9 8 7 4 3 5
9 10 12 14 13 13 12 12 11 10 12 12 13 12 12 12 13 15 15 14 13 13 11 9 8 6 6 5 5 4 5 6 7 7 7 7 7 7 8 8 7 7 7 7 8 9 11 12 12 12 13 12 11 12 11 10 10 11 9 8 10 6 9 12 11 11 12 12 12 10 8 10 8 7 8 7 7 8 7 7 8 9 8 5 6
10 11 11 12 12 12 11 12 11 11 11 12 12 11 12 12 12 14 14 13 13 12 10 9 9 9 8 7 6 6 6 6 7 9 8 7 7 8 8 8 7 7 7 6 7 9 9 10 11 12 12 12 13 12 11 11 10 11 11 11 12 10 11 12 11 11 12 11 11 12 11 9 9 7 7 7 6 6 7 6 8 9 9 9 5
9 10 10 11 10 11 10 9 9 10 11 12 12 10 9 9 11 11 12 13 13 13 14 13 12 11 10 10 8 7 6 7 7 8 8 8 7 7 7 7 8 6 6 4 7 8 10 11 11 11 11 11 12 11 12 12 11 11 12 12 12 10 12 10 11 12 12 11 11 10 10 9 8 7 8 8 7 8 7 7 8 8 8 10 8
7 8 7 7 8 8 9 10 12 12 12 12 11 11 11 9 9 9 11 11 12 11 12 12 12 9 8 9 9 8 7 7 7 7 7 8 9 8 8 8 7 6 7 7 8 8 9 9 11 11 10 11 12 12 11 11 12 12 12 12 11 11 11 12 11 10 10 10 11 12 10 10 8 9 8 7 7 7 7 7 7 6 6 8 9
6 7 7 6 7 8 8 9 10 10 10 10 11 11 13 12 13 13 12 12 13 14 12 13 11 11 11 11 11 9 8 8 8 8 8 8 9 9 9 8 9 7 7 8 8 9 9 10 10 11 11 11 12 12 11 12 11 12 11 11 12 13 14 14 12 10 8 10 11 13 12 11 8 8 8 8 8 7 7 7 7 7 6 6 6
3 3 3 4 5 6 7 7 7 8 8 8 8 10 10 11 13 14 14 14 13 12 11 9 9 11 12 12 11 11 11 8 8 8 7 8 9 9 9 9 7 8 8 8 9 10 10 10 10 10 11 11 12 12 11 11 12 13 12 12 12 13 15 13 12 12 11 11 13 13 13 12 8 10 9 9 8 8 8 7 7 7 7 7 7
2 2 2 3 3 3 3 4 4 5 6 8 8 8 10 12 11 10 11 11 11 11 10 9 8 7 8 9 10 9 8 7 8 7 7 7 8 9 10 9 9 9 8 8 9 9 9 10 10 10 11 11 11 12 12 11 13 13 14 10 12 13 14 14 12 14 13 11 13 13 13 11 10 11 9 9 9 9 9 9 9 9 9 9 8
1 2 1 1 2 1 2 3 4 5 6 6 7 8 8 8 8 8 9 10 10 9 9 8 7 7 7 6 6 6 8 9 9 7 8 8 7 8 9 9 10 10 9 8 9 10 10 10 10 10 10 11 12 12 11 12 13 14 14 12 11 13 14 14 15 15 14 12 13 14 14 11 7 11 11 10 8 9 8 9 10 9 10 9 9
1 1 1 1 1 1 1 2 2 4 5 6 7 7 8 8 9 9 10 10 10 8 8 8 8 9 10 10 9 8 9 9 8 7 9 9 8 8 8 8 9 9 10 10 9 10 10 11 11 10 9 10 11 11 11 12 14 14 14 14 13 14 14 14 14 14 13 13 15 14 14 13 10 12 12 11 9 8 8 8 8 8 9 9 9
1 2 2 1 1 2 3 3 4 5 5 6 6 6 6 7 7 8 8 8 8 7 8 8 8 10 10 10 11 10 10 10 9 7 9 9 10 9 8 9 9 9 9 9 10 9 10 10 9 9 9 10 11 11 11 12 12 13 14 14 14 14 14 14 13 13 14 11 12 14 14 11 11 12 12 11 11 12 8 7 7 7 8 7 6
3 4 5 7 6 6 7 7 6 6 7 7 7 7 7 6 7 6 7 8 8 8 9 9 9 8 8 10 9 9 10 11 10 9 9 8 8 8 9 7 8 9 9 9 10 9 9 10 10 11 11 11 10 9 10 11 12 11 11 12 12 13 13 13 13 9 13 12 11 12 10 13 12 13 13 12 11 13 7 7 8 7 7 7 8
5 5 6 7 8 10 9 8 7 6 7 6 7 7 7 7 8 8 8 7 7 8 8 8 9 9 9 10 10 10 10 10 10 10 9 8 8 8 8 9 8 8 8 9 9 10 9 9 9 9 10 10 11 11 11 10 10 10 9 10 12 13 13 12 13 14 11 14 17 18 15 17 17 14 12 11 9 9 8 10 9 8 8 8 9
2 2 3 4 5 6 8 9 10 10 9 7 6 6 6 7 8 8 8 8 7 9 9 9 8 8 8 9 9 9 9 9 9 9 9 9 9 9 9 9 9 9 8 8 9 10 10 8 8 9 10 9 10 11 11 12 13 13 12 11 12 13 13 12 12 13 13 13 15 15 11 15 13 10 11 6 12 10 8 10 10 8 9 9 9
2 2 2 3 3 3 4 5 6 7 8 9 9 9 9 8 6 6 6 6 7 7 8 9 9 9 9 9 8 8 8 9 9 10 10 10 10 9 10 9 9 9 8 9 9 9 10 10 9 9 10 9 9 10 9 9 10 12 11 11 10 14 13 12 12 11 11 12 13 14 13 11 18 21 23 20 20 18 8 9 9 10 11 8 7
4 4 4 4 5 4 5 5 5 6 7 7 6 6 6 7 8 8 9 8 7 7 6 6 6 6 7 8 9 8 9 9 9 9 10 10 10 10 9 8 9 9 9 9 9 9 9 10 10 10 10 9 9 7 11 16 15 11 10 9 12 14 14 10 10 10 11 13 13 11 13 23 23 22 24 25 24 24 23 11 9 10 11 7 8
6 6 6 6 6 6 5 6 6 6 6 6 6 6 7 7 6 6 6 7 7 8 9 8 9 7 7 7 6 6 8 9 9 10 8 8 10 8 8 8 7 6 8 10 9 10 9 8 9 10 11 10 8 7 14 14 17 19 14 12 8 11 13 12 10 11 12 12 13 14 12 18 20 21 22 25 14 14 14 14 13 8 7 17 17
7 7 6 7 7 7 7 7 7 7 6 6 5 6 6 7 8 8 9 8 8 8 8 8 9 10 10 10 9 8 8 7 7 7 8 8 8 8 8 8 8 8 7 6 9 9 9 9 8 9 10 10 10 11 13 15 17 19 18 14 10 10 13 9 13 12 11 11 12 12 12 11 13 16 13 14 17 19 17 19 16 11 10 11 17
8 8 8 8 8 8 8 8 8 7 6 6 5 5 6 6 6 7 7 7 8 8 9 9 9 9 9 9 10 10 10 10 9 9 8 7 6 7 7 8 9 9 8 8 9 9 9 9 9 9 9 9 10 13 14 16 17 19 20 18 12 13 13 12 11 12 12 12 10 9 10 9 10 20 16 13 13 13 17 19 19 16 14 19 20
10 9 9 9 8 7 7 8 9 9 8 6 6 6 6 5 5 6 6 7 7 8 8 9 9 8 9 8 9 8 8 9 10 11 10 9 8 8 8 8 8 8 8 9 9 9 8 8 8 9 10 9 10 11 16 18 18 19 20 18 13 14 14 14 13 11 15 16 16 12 9 10 8 12 13 14 13 12 11 11 13 10 10 14 19
10 10 10 9 9 9 9 9 9 9 8 7 7 6 6 5 5 6 6 6 7 8 8 9 10 9 8 7 8 8 8 9 9 10 11 11 10 10 9 9 9 9 9 9 9 9 9 8 8 8 9 9 9 14 16 18 19 20 21 19 13 13 13 14 13 10 14 17 16 15 11 11 10 12 12 14 12 11 13 15 15 14 12 12 13
10 9 9 8 8 8 9 9 8 7 7 7 8 7 6 7 6 6 6 5 6 6 8 8 8 9 8 8 8 8 9 9 10 10 11 12 11 10 10 10 10 10 9 9 8 8 9 10 9 8 9 10 9 13 16 18 19 20 22 13 12 12 13 15 13 12 10 11 12 13 9 11 8 10 16 21 16 11 15 16 18 15 10 10 12
10 9 10 9 9 9 10 8 8 7 7 7 7 6 6 7 7 5 5 6 6 7 7 8 7 9 8 8 8 8 9 9 9 10 11 12 11 11 11 9 10 10 11 10 10 9 9 9 11 9 10 11 11 11 14 17 18 19 16 11 12 12 13 13 12 11 10 11 10 10 9 9 8 10 17 24 23 17 15 17 17 16 12 8 10
11 10 9 9 9 9 9 8 10 10 9 6 5 5 6 6 6 7 6 7 7 8 9 7 8 7 9 8 7 7 8 9 9 10 11 11 10 10 10 9 10 11 12 12 11 11 11 9 9 10 9 10 12 12 14 16 18 19 16 12 12 13 15 14 12 9 9 9 13 21 17 12 11 11 18 25 25 20 17 17 16 15 15 11 10
12 12 13 12 10 9 8 9 10 11 10 4 4 5 6 7 7 7 7 8 9 10 10 9 10 10 9 7 6 6 8 9 10 11 10 11 10 10 10 10 10 10 12 12 12 11 11 10 10 11 12 12 12 13 16 18 19 19 16 11 12 13 15 16 14 10 9 9 10 15 21 17 12 12 22 25 28 22 16 17 15 14 12 13 13
13 12 11 9 7 7 8 9 10 11 8 6 5 5 7 8 8 8 8 10 9 10 10 11 11 11 9 7 6 7 8 9 11 11 10 10 10 10 10 10 11 10 11 12 12 11 12 12 11 11 11 11 12 11 13 18 19 19 21 14 11 13 15 15 12 9 7 7 7 8 14 23 20 20 23 26 27 28 16 13 11 12 12 14 11
14 8 9 8 8 8 10 11 10 9 8 7 6 7 9 9 9 9 11 11 10 10 10 11 11 10 9 8 8 8 10 11 11 11 10 10 10 11 11 11 12 12 11 12 13 13 14 14 12 10 10 11 10 11 13 18 19 20 22 20 12 14 14 13 14 13 9 9 8 8 7 17 24 23 24 26 28 29 21 12 12 12 13 10 15
7 5 6 7 8 9 11 11 11 10 8 6 6 9 10 10 10 12 13 11 11 11 10 9 10 9 8 9 9 9 10 11 10 9 10 12 11 10 11 12 11 12 15 16 15 13 13 13 12 10 11 12 11 15 13 15 19 21 22 24 16 14 15 13 13 17 11 9 10 9 7 14 23 24 25 26 29 29 29 17 16 20 17 21 16
9 8 7 7 9 11 12 13 11 9 6 6 7 11 11 10 12 14 12 9 11 10 9 9 9 10 12 13 11 10 10 9 9 10 10 13 13 12 12 12 12 14 14 16 16 15 13 13 12 11 10 10 9 10 16 15 18 21 23 23 26 21 21 16 14 16 9 9 7 8 8 16 23 25 26 27 27 29 27 19 24 25 21 25 16
7 7 7 7 10 11 13 14 13 10 9 7 6 11 12 14 16 14 12 11 9 8 9 11 12 14 15 13 12 13 11 10 10 10 11 13 14 13 12 12 12 12 13 14 13 13 12 12 12 12 11 11 9 9 12 18 17 21 22 24 25 26 26 16 13 14 14 8 8 9 9 18 23 25 26 26 26 27 21 29 28 27 25 23 11
10 10 8 7 10 12 14 15 15 13 10 9 8 11 13 15 14 12 13 12 12 13 12 14 16 16 15 15 13 11 11 8 10 11 13 13 14 13 13 12 12 13 13 13 14 13 13 12 12 12 11 11 10 8 8 11 19 20 23 23 24 26 26 27 18 14 13 9 10 14 16 20 23 24 26 26 24 28 31 27 29 29 27 14 11
9 8 9 9 11 12 13 15 17 15 11 10 10 10 14 15 14 13 13 12 14 15 15 17 16 14 16 16 17 16 13 12 13 12 14 14 15 15 14 13 12 13 13 13 14 13 13 13 13 12 12 12 11 9 8 7 10 15 17 22 25 25 25 27 27 16 15 16 15 16 21 22 23 21 18 15 13 13 25 28 28 28 17 13 10
10 11 11 11 11 12 14 15 18 17 13 13 13 12 12 14 15 15 15 15 15 15 17 17 16 17 17 15 16 16 17 15 15 13 15 15 14 14 16 14 13 13 13 13 14 14 14 14 14 13 13 11 11 10 10 8 8 9 10 11 13 15 22 23 18 15 15 14 14 16 14 18 15 23 23 19 18 15 17 18 17 17 14 10 9
9 10 10 11 11 12 15 16 16 16 14 14 14 13 13 14 14 15 17 18 19 18 18 19 19 18 17 17 16 20 20 17 17 14 15 15 14 13 14 15 14 13 13 14 13 14 14 14 14 13 13 12 12 11 11 10 9 9 8 9 9 10 10 10 11 12 11 11 10 14 18 14 15 16 16 13 12 12 13 12 12 12 12 10 12
12 11 10 10 12 14 15 16 17 15 15 15 15 15 14 16 16 15 16 18 18 20 19 20 19 17 17 16 15 16 16 15 16 15 15 16 15 14 15 16 17 14 15 15 15 16 17 16 15 15 15 15 14 13 12 10 6 12 11 9 9 10 10 10 14 17 9 7 8 10 13 14 14 14 14 13 12 12 11 11 13 13 10 10 13
10 10 11 12 12 12 16 17 17 15 14 15 15 15 14 14 14 14 15 17 18 18 19 18 16 16 16 15 14 14 14 14 15 15 15 16 19 24 21 17 17 22 29 31 27 20 19 16 16 17 15 17 16 15 15 16 15 18 21 22 19 18 17 14 15 22 14 10 10 12 12 13 13 14 14 14 14 13 11 11 12 10 11 13 9
12 12 13 13 14 14 15 17 16 15 15 15 16 17 15 15 14 14 15 16 16 17 18 17 16 15 16 16 16 16 15 14 15 15 15 16 16 16 23 30 31 31 31 32 33 36 37 36 26 21 21 31 31 32 31 28 27 25 22 23 24 24 25 24 23 16 13 13 13 12 11 11 12 12 13 14 12 11 11 9 10 11 11 10 14
Wind_Direction
280 275 296 317 314 313 316 313 310 298 273 263 248 230 223 220 208 210 197 197 196 194 197 194 196 201 207 210 213 205 206 206 206 208 208 206 197 191 187 189 190 186 187 186 194 192 193 184 174 173 180 184 187 191 183 176 172 168 159 161 164 167 177 165 156 147 139 127 118 121 118 106 109 160 174 173 173 168 169 175 158 156 140 139 139
285 333 348 337 345 339 341 347 346 332 326 285 253 250 240 228 223 213 194 196 201 201 198 200 204 202 198 206 206 206 201 201 207 204 206 201 195 191 193 191 191 190 188 191 193 192 190 179 176 176 183 189 193 188 173 159 158 165 159 159 179 178 176 175 167 164 181 176 160 157 153 158 166 193 188 177 181 179 182 173 172 163 153 149 149
337 25 15 13 354 0 6 2 3 353 331 327 326 301 267 239 233 222 207 200 204 201 198 201 203 205 204 207 200 205 210 214 214 212 202 201 195 194 195 193 194 193 190 193 195 194 188 180 183 180 185 184 184 184 177 174 177 173 173 173 167 186 181 176 183 202 187 179 163 147 178 174 179 212 204 200 187 183 188 180 178 160 156 168 162
42 39 31 16 9 10 10 7 357 343 355 6 360 338 305 267 245 222 216 208 209 206 205 202 198 191 186 178 180 204 214 198 201 200 200 200 206 199 201 198 193 196 194 193 194 193 190 187 181 183 187 187 189 185 183 184 176 178 179 183 169 169 186 187 203 209 226 154 177 218 170 203 190 208 193 190 187 187 198 189 181 173 163 169 173
33 37 28 19 14 14 14 5 353 354 359 6 360 351 333 314 282 252 233 211 206 202 197 195 170 170 175 141 151 195 214 208 209 224 214 211 212 204 207 199 199 200 196 195 197 197 194 189 186 187 186 188 190 189 186 188 182 183 179 178 183 183 183 182 198 208 229 264 229 145 144 213 237 116 163 178 178 196 206 201 186 186 181 185 182
35 30 22 18 11 8 17 10 7 358 359 357 351 349 342 333 321 293 258 235 214 200 192 197 205 202 190 193 204 207 215 210 212 211 203 204 207 207 204 203 203 205 203 199 198 198 197 194 190 186 188 188 193 195 186 179 183 182 185 187 190 197 180 173 186 206 226 237 263 315 343 267 175 143 170 187 170 210 199 199 198 198 199 195 197
37 33 28 21 10 10 13 12 7 358 359 352 357 358 357 352 345 323 288 264 228 212 188 187 195 205 206 208 211 208 213 215 209 203 204 201 197 201 199 196 204 207 208 204 201 201 200 196 194 193 191 192 191 192 189 189 186 187 181 192 195 190 189 189 184 188 199 249 239 245 270 224 287 145 201 127 178 184 212 201 206 203 203 210 206
33 30 27 25 20 17 9 7 4 5 5 6 5 0 356 1 355 352 329 299 239 210 199 206 207 202 204 210 217 224 223 224 198 199 199 192 191 195 194 199 198 205 208 207 206 204 203 202 199 197 195 195 189 198 196 188 182 185 188 193 192 196 198 198 190 181 186 203 196 214 234 243 261 295 291 215 242 179 183 201 215 198 208 214 216
29 29 23 23 25 23 14 6 19 24 21 14 7 1 355 354 6 4 355 341 332 211 215 209 218 223 216 216 225 231 237 238 233 203 203 190 194 198 197 195 192 198 205 205 205 207 205 206 201 200 199 198 192 200 201 189 187 182 183 189 196 198 202 208 202 191 193 194 162 202 202 204 198 258 279 265 234 234 197 177 188 187 214 221 214
34 32 36 40 34 26 11 22 30 26 19 15 15 14 9 2 6 14 16 2 358 310 247 230 222 230 226 227 233 236 231 233 233 224 214 200 202 203 196 196 195 195 202 204 202 205 207 205 204 202 202 200 194 202 200 191 191 190 189 193 195 198 202 206 212 201 193 200 181 170 182 176 198 207 217 202 268 251 250 188 178 175 197 207 195
40 35 32 33 30 29 26 32 27 24 22 21 17 16 15 14 6 19 19 9 9 351 324 273 251 245 243 240 238 239 241 243 238 230 219 208 212 206 202 202 198 201 199 204 206 204 206 205 204 202 202 199 195 200 203 198 196 193 191 193 197 201 202 202 213 218 193 199 183 188 191 184 188 192 193 195 200 196 215 208 180 194 204 165 188
36 30 24 20 18 24 31 31 26 22 23 23 20 17 19 17 13 21 20 13 9 2 350 324 306 279 269 269 260 255 252 253 246 245 228 217 216 215 207 204 204 201 198 204 206 203 205 206 206 205 204 204 203 203 203 198 196 193 191 195 201 204 206 199 207 208 198 205 194 200 202 198 205 201 193 187 195 207 200 215 188 157 228 175 124
38 29 26 25 26 23 28 28 25 23 21 20 20 20 20 19 17 21 20 12 7 3 0 350 331 311 299 289 282 276 269 264 256 248 241 223 218 220 210 210 207 204 207 207 206 199 198 201 202 206 209 209 208 203 204 198 194 193 195 195 199 197 202 199 200 206 198 200 198 204 206 206 210 209 196 188 200 207 197 218 148 161 192 168 151
34 31 28 28 28 30 32 31 30 25 23 21 21 23 22 24 23 25 21 13 8 12 10 358 342 321 312 310 303 295 287 275 266 259 250 237 227 223 220 218 215 213 211 211 208 198 198 205 207 209 212 213 209 207 204 199 194 197 198 199 200 203 200 200 206 204 202 204 199 198 206 213 213 206 198 189 190 184 197 210 166 162 164 155 135
36 33 32 30 30 29 31 28 26 24 21 22 22 23 23 24 27 28 27 20 17 12 10 4 349 326 308 296 296 299 290 286 280 273 265 250 236 232 231 227 226 223 218 218 205 199 201 203 207 208 208 211 208 207 207 206 204 207 209 207 205 202 201 200 208 203 204 199 205 208 205 211 214 200 194 205 195 193 193 193 171 173 192 199 177
31 32 33 32 31 28 27 24 23 20 22 23 24 22 22 21 25 28 28 25 22 19 16 5 352 332 322 317 310 292 283 287 285 281 275 269 257 245 242 235 231 231 226 215 206 201 203 206 206 207 206 206 207 207 207 208 205 209 215 213 213 200 206 204 211 207 212 203 207 206 207 214 208 197 201 206 199 197 196 186 184 189 192 200 193
32 33 31 27 27 28 26 24 19 19 22 26 24 21 22 22 25 28 28 28 27 26 26 21 9 355 350 343 329 312 296 282 283 284 278 274 266 258 252 250 241 233 232 209 209 207 210 210 213 214 213 210 209 205 203 205 204 208 214 213 214 207 209 211 209 212 214 206 211 203 211 212 207 195 201 207 201 196 200 192 191 196 202 220 186
39 37 34 30 26 23 22 21 21 20 21 21 22 22 24 28 27 30 26 24 20 20 24 25 17 9 3 358 347 330 311 297 287 284 284 278 269 263 260 256 248 243 232 213 213 213 211 210 215 215 214 212 211 208 203 202 200 209 213 216 216 208 209 214 212 212 210 203 207 204 208 217 202 189 203 202 200 199 195 192 197 204 208 215 215
41 40 37 34 29 25 21 19 20 21 20 18 13 15 17 22 26 34 35 30 26 25 26 27 23 16 5 360 353 347 334 317 300 289 282 276 275 271 263 258 260 245 238 232 221 219 215 211 211 215 212 213 212 214 210 210 206 211 210 214 211 206 210 215 215 208 214 204 205 206 205 216 202 196 198 199 204 198 197 189 196 197 203 215 220
40 38 36 32 32 29 25 22 20 19 17 14 12 12 15 13 14 15 20 26 27 26 23 25 23 20 13 14 13 4 352 333 319 311 301 291 283 278 271 262 255 251 238 231 228 223 220 216 213 215 215 213 212 212 209 211 210 218 216 213 211 203 213 216 213 207 205 207 210 212 209 210 199 186 199 200 201 201 194 193 192 189 198 207 209
56 51 48 41 34 33 29 23 21 17 19 17 17 18 16 13 15 14 14 13 19 20 20 23 18 19 16 17 15 12 5 354 339 322 309 303 298 291 282 274 271 255 246 237 233 230 226 222 218 214 214 213 210 210 207 208 212 216 217 218 216 206 208 214 211 210 201 205 212 214 213 208 194 193 202 198 200 196 191 197 187 186 195 193 191
75 69 54 47 46 34 36 36 25 22 18 17 17 21 20 20 15 12 13 15 8 8 11 7 14 20 24 18 17 13 6 359 350 347 339 332 318 308 301 294 280 270 253 244 241 236 230 228 223 219 215 215 214 212 209 207 214 216 217 212 214 211 213 217 208 214 202 201 208 213 215 203 193 202 204 201 198 192 194 194 193 190 196 191 192
48 52 44 40 44 40 46 39 35 32 26 21 21 23 22 18 14 12 14 12 10 4 359 357 1 3 8 16 18 14 11 7 0 357 350 340 331 317 309 300 293 287 276 260 251 243 237 232 230 226 220 219 217 214 210 209 215 217 218 214 207 210 210 211 211 213 202 194 200 210 212 196 174 200 208 206 198 197 195 199 195 191 197 192 187
15 357 344 316 333 357 42 32 31 29 29 31 28 23 18 17 14 8 11 9 7 3 357 358 354 359 4 4 7 8 11 13 10 359 357 352 347 336 317 304 294 285 280 271 256 252 248 241 236 229 222 220 219 220 217 214 216 217 219 220 216 216 216 213 213 213 205 193 200 203 206 193 176 197 205 200 196 195 194 201 195 194 196 193 187
301 321 313 302 324 7 17 19 19 21 24 21 23 19 18 17 14 11 6 1 358 354 354 357 360 2 5 7 3 1 0 1 3 357 358 360 358 350 339 321 310 299 286 277 267 251 249 245 237 231 227 225 225 220 217 218 219 220 222 223 222 221 221 219 217 217 213 201 202 206 201 177 171 193 200 196 190 191 191 188 195 185 191 190 174
2 353 355 357 356 359 6 7 8 12 13 11 10 9 7 8 11 7 2 358 353 355 353 356 358 1 0 2 0 359 358 357 355 355 357 355 348 350 341 332 322 312 304 292 279 265 243 243 240 236 230 229 227 225 223 225 225 221 221 224 226 226 227 223 220 221 221 218 206 205 193 172 180 194 200 188 181 190 168 186 189 180 183 179 179
358 353 345 345 355 357 353 356 360 1 5 0 0 0 360 358 357 1 0 356 349 350 348 350 351 353 355 357 357 355 353 353 352 348 345 344 345 341 341 339 332 317 307 299 292 282 267 249 245 240 236 232 230 228 229 228 226 225 219 221 227 230 232 226 221 222 216 217 221 222 209 209 199 203 195 177 162 158 174 191 184 175 173 174 181
258 290 322 333 333 336 346 346 349 349 348 353 356 358 355 351 350 352 350 350 347 346 347 350 349 353 354 354 351 347 347 346 340 342 340 343 342 342 341 337 335 331 322 306 294 288 281 264 254 251 249 241 240 240 234 230 230 230 230 232 231 236 239 236 230 225 223 219 218 214 199 193 200 203 198 146 154 172 168 184 187 173 174 177 187
298 302 299 288 302 300 316 326 330 331 337 340 342 344 346 343 345 346 344 343 341 337 340 344 345 347 349 345 343 341 341 341 340 339 342 342 340 338 337 334 332 331 322 317 309 299 289 281 267 255 254 250 246 240 235 230 229 227 219 223 224 235 239 239 233 226 223 221 217 216 211 209 214 219 219 216 211 204 172 181 184 167 175 176 178
289 293 294 286 285 298 299 307 310 315 321 325 327 327 329 327 328 335 336 339 340 333 332 331 331 333 334 335 335 337 337 338 337 338 337 336 334 333 331 330 329 329 327 318 316 307 297 291 287 276 260 249 245 244 243 241 236 237 227 219 226 234 238 236 232 228 225 223 220 214 220 221 222 221 221 221 219 213 213 212 177 161 180 167 172
260 260 268 270 273 272 277 278 289 296 299 309 311 316 322 319 321 324 327 331 331 326 331 330 330 326 323 321 323 324 329 331 333 331 329 330 330 329 326 323 323 323 322 322 317 313 305 298 292 289 285 273 255 236 243 236 235 233 236 236 225 228 232 232 228 225 229 224 224 222 221 220 220 222 222 221 214 208 208 210 214 225 206 170 167
272 272 274 280 284 288 283 282 279 281 279 275 286 295 304 310 319 328 330 330 328 323 325 322 323 325 327 329 327 326 325 323 325 323 321 320 320 318 320 319 320 320 318 315 310 303 306 298 289 285 280 277 274 267 253 244 238 235 231 234 236 233 234 231 232 230 229 226 223 220 218 215 208 212 206 209 213 215 208 212 212 207 214 237 209
288 292 289 285 283 280 282 282 281 275 275 270 267 269 274 280 291 299 310 311 314 316 316 316 315 317 319 323 327 328 328 329 329 326 317 305 300 307 311 317 318 316 312 313 311 308 301 298 290 284 277 273 275 275 268 253 242 237 234 231 239 237 236 236 227 226 223 225 221 215 212 209 205 209 209 207 205 206 209 208 212 210 212 209 212
272 272 275 276 277 274 271 270 273 279 278 278 259 261 269 266 273 283 291 297 301 305 306 306 308 308 312 316 316 320 320 323 325 321 316 311 310 306 308 305 303 307 310 308 308 304 300 295 289 284 280 277 269 273 270 264 254 242 237 233 236 239 239 239 232 216 226 233 233 227 212 210 192 191 200 204 197 195 190 193 203 205 205 209 212
256 260 260 257 260 266 268 269 270 273 279 277 275 270 270 266 262 277 285 293 298 299 302 302 304 305 308 312 315 316 318 320 320 319 313 307 305 309 309 311 309 304 302 302 303 304 298 295 284 279 278 271 265 268 269 266 263 255 246 237 237 238 240 242 239 225 227 232 230 231 224 215 195 185 194 189 186 178 188 202 209 210 205 199 203
252 260 262 266 265 269 273 273 271 266 261 260 265 271 266 272 275 275 282 282 281 283 284 289 292 296 299 305 311 312 316 319 319 317 312 306 306 306 312 312 307 300 296 292 290 285 285 290 288 283 282 274 263 248 252 259 260 259 256 248 243 239 240 241 240 233 219 217 220 220 205 215 187 187 190 191 185 171 194 202 209 210 202 201 205
254 257 263 266 271 271 272 271 267 258 253 254 259 256 261 269 273 270 271 273 272 271 276 277 278 286 291 295 302 306 307 310 311 310 305 302 305 309 310 310 301 296 294 292 288 286 287 285 285 283 279 276 274 261 255 261 260 258 256 251 248 243 241 237 234 228 216 216 210 195 196 205 183 194 189 194 195 179 197 202 206 205 203 198 205
259 258 258 259 261 265 267 269 274 274 269 258 255 253 259 267 269 274 273 274 273 274 282 282 281 285 284 289 294 296 298 299 303 300 297 295 298 301 297 299 299 296 292 286 285 284 278 273 273 274 272 273 278 270 261 262 259 256 251 250 250 250 248 241 238 219 217 217 215 218 217 214 199 200 186 195 198 191 202 204 203 200 202 201 200
254 253 259 260 257 260 275 280 279 276 281 279 275 271 268 271 276 279 275 275 276 281 282 284 284 282 281 282 287 287 291 293 294 293 292 293 297 298 296 300 295 292 289 290 285 280 277 271 266 271 273 268 268 270 262 262 260 255 251 246 248 250 253 250 243 230 213 222 217 220 215 213 200 186 187 198 200 196 201 202 199 196 199 199 195
257 255 255 275 300 301 282 276 275 285 309 333 320 300 289 283 283 284 278 275 278 279 282 285 284 284 282 277 282 284 286 290 288 289 289 288 293 295 294 295 293 290 287 285 282 277 278 275 270 267 262 260 266 265 265 261 258 254 251 248 246 247 249 250 243 230 214 209 211 204 205 211 208 199 197 201 203 200 196 192 183 195 193 202 175
281 299 11 330 314 303 298 299 305 318 329 323 324 307 295 292 290 287 275 280 287 288 289 284 283 282 281 281 285 283 280 279 278 282 287 290 289 289 292 292 293 289 283 282 281 279 275 271 262 248 254 257 252 259 265 261 257 253 250 248 246 245 248 250 255 244 225 216 207 206 198 203 211 210 206 204 204 205 196 179 190 196 197 164 164
292 6 350 329 316 311 306 304 304 310 317 314 310 297 290 291 291 280 279 295 294 296 293 288 283 278 274 277 275 275 273 276 280 283 284 284 282 282 283 287 287 284 287 285 280 275 271 269 269 253 245 254 244 237 256 259 254 252 249 245 244 245 243 248 250 254 236 222 215 202 192 192 205 210 209 206 206 205 204 197 202 201 187 174 180
336 345 4 348 322 312 308 305 306 307 307 304 305 295 291 290 281 281 299 302 302 301 293 288 282 278 281 280 276 272 273 276 278 279 279 279 283 284 282 281 278 277 274 277 275 273 269 265 263 263 257 241 233 233 239 248 251 251 250 246 244 246 247 245 246 250 230 220 208 198 192 187 202 208 210 208 207 207 208 207 201 199 191 186 171
339 341 338 336 312 309 306 306 306 306 308 309 299 295 293 293 286 302 307 305 303 297 290 287 285 284 285 281 278 278 273 271 276 279 277 275 277 278 278 275 276 274 274 272 270 270 268 265 264 262 257 252 230 228 234 238 244 247 248 247 248 248 248 245 243 246 247 220 209 205 190 187 202 208 211 209 209 209 210 211 206 198 192 186 167
328 328 328 326 318 312 309 305 305 307 313 314 308 300 296 291 298 310 308 309 307 301 295 287 287 286 284 283 284 278 276 272 274 276 276 276 275 273 275 272 268 266 263 263 264 264 264 264 264 262 264 262 253 228 219 228 234 244 246 246 247 248 249 248 247 244 234 225 210 198 196 200 204 207 209 212 213 213 212 211 208 202 197 187 178
326 327 336 330 320 312 307 305 305 309 315 315 311 312 305 304 312 313 311 309 307 301 293 289 288 286 284 286 288 285 278 270 268 267 266 265 266 268 265 266 264 261 261 262 263 264 263 262 261 259 261 262 258 242 220 216 221 237 242 244 245 246 247 246 245 247 235 222 213 199 199 202 204 206 208 213 215 214 218 217 210 199 191 191 174
328 329 336 326 329 319 313 313 307 311 319 316 319 317 315 317 319 319 320 319 313 304 296 291 287 289 289 286 284 284 288 287 280 277 275 272 268 269 271 266 260 260 260 261 262 264 266 264 263 260 260 258 255 252 243 214 205 223 226 233 237 243 246 248 251 250 246 227 205 197 193 199 200 205 206 207 210 208 214 217 214 197 192 179 162
327 322 331 325 321 317 312 313 309 315 321 319 319 318 320 322 316 315 313 309 302 297 294 291 288 289 287 286 286 285 284 284 281 278 275 273 270 262 260 259 258 258 261 264 265 265 262 262 264 265 265 263 259 252 250 233 203 203 216 219 222 228 232 231 236 241 238 224 206 202 206 205 206 208 209 207 207 209 208 212 201 191 188 167 159
325 326 334 325 323 320 315 313 306 311 313 313 314 315 318 315 311 308 305 301 296 295 292 289 289 289 283 283 282 281 281 281 280 277 270 267 266 264 260 263 258 254 254 259 265 264 261 261 263 265 265 264 261 255 242 243 198 194 200 207 214 221 218 224 228 231 228 202 198 193 195 199 200 202 202 201 200 200 207 199 185 187 170 151 166
324 322 323 321 320 317 311 308 306 309 309 307 305 303 302 300 299 299 300 297 296 296 294 290 290 289 288 289 287 284 283 282 280 279 279 276 265 261 259 258 264 257 254 253 253 255 256 259 260 257 253 256 258 259 267 261 245 229 212 213 215 213 214 217 222 228 221 204 198 194 193 193 195 198 199 199 196 196 195 186 185 166 159 165 150
326 322 319 320 315 313 308 302 302 306 303 301 298 299 296 294 294 293 295 291 290 292 292 291 292 289 289 291 288 285 283 280 278 277 276 277 282 272 261 261 261 263 261 259 257 257 258 257 256 260 260 260 264 266 266 264 261 258 245 230 223 224 228 229 225 225 216 200 196 195 194 190 194 194 197 197 188 186 184 175 174 171 172 159 166